TimeEST,TemperatureF,Dew PointF,Humidity,Sea Level PressureIn,VisibilityMPH,Wind Direction,Wind SpeedMPH,Gust SpeedMPH,PrecipitationIn,Events,Conditions,WindDirDegrees,DateUTC
12:54 AM,23.0,3.0,42,30.09,10.0,West,20.7,28.8,N/A,,Partly Cloudy,280,2013-02-02 05:54:00
1:54 AM,21.9,3.9,46,30.13,10.0,WNW,16.1,-,N/A,,Partly Cloudy,290,2013-02-02 06:54:00
2:54 AM,21.9,3.9,46,30.14,10.0,WNW,15.0,20.7,N/A,,Partly Cloudy,300,2013-02-02 07:54:00
3:54 AM,21.0,3.0,46,30.15,10.0,WNW,11.5,-,N/A,,Partly Cloudy,290,2013-02-02 08:54:00
4:54 AM,19.9,3.0,48,30.18,10.0,WNW,10.4,-,N/A,,Partly Cloudy,290,2013-02-02 09:54:00
5:54 AM,19.9,1.9,46,30.20,10.0,WNW,12.7,18.4,N/A,,Partly Cloudy,290,2013-02-02 10:54:00
6:54 AM,19.0,1.9,47,30.22,10.0,WNW,11.5,-,N/A,,Partly Cloudy,290,2013-02-02 11:54:00
7:54 AM,19.9,1.9,46,30.24,10.0,West,8.1,-,N/A,,Scattered Clouds,280,2013-02-02 12:54:00
8:54 AM,21.0,-0.0,40,30.25,10.0,West,12.7,-,N/A,,Scattered Clouds,270,2013-02-02 13:54:00
9:54 AM,21.9,1.0,40,30.25,10.0,WSW,9.2,-,N/A,,Scattered Clouds,250,2013-02-02 14:54:00
10:54 AM,24.1,1.0,37,30.24,10.0,WSW,8.1,-,N/A,,Scattered Clouds,240,2013-02-02 15:54:00
11:54 AM,28.0,3.0,34,30.20,10.0,WSW,8.1,-,N/A,,Scattered Clouds,240,2013-02-02 16:54:00
12:54 PM,28.0,3.9,36,30.17,10.0,South,12.7,19.6,N/A,,Scattered Clouds,190,2013-02-02 17:54:00
1:54 PM,30.0,6.1,36,30.13,10.0,SSW,10.4,18.4,N/A,,Mostly Cloudy,210,2013-02-02 18:54:00
2:54 PM,28.9,7.0,40,30.11,10.0,SSW,13.8,20.7,N/A,,Overcast,200,2013-02-02 19:54:00
3:54 PM,28.9,8.1,41,30.09,10.0,South,15.0,-,N/A,,Overcast,180,2013-02-02 20:54:00
4:54 PM,28.9,7.0,40,30.08,10.0,SSW,16.1,-,N/A,,Overcast,200,2013-02-02 21:54:00
5:54 PM,28.0,7.0,41,30.08,10.0,SW,12.7,-,N/A,,Overcast,220,2013-02-02 22:54:00
6:54 PM,28.0,8.1,43,30.08,10.0,SW,16.1,19.6,N/A,,Overcast,230,2013-02-02 23:54:00
7:54 PM,28.0,9.0,45,30.07,10.0,SW,15.0,-,N/A,,Overcast,230,2013-02-03 00:54:00
8:54 PM,28.0,10.0,47,30.07,10.0,SW,12.7,-,N/A,,Overcast,230,2013-02-03 01:54:00
9:54 PM,27.0,10.0,49,30.07,10.0,SW,12.7,-,N/A,,Overcast,230,2013-02-03 02:54:00
10:54 PM,27.0,10.0,49,30.06,10.0,SW,9.2,-,N/A,,Overcast,230,2013-02-03 03:54:00
11:54 PM,27.0,10.0,49,30.06,10.0,WSW,15.0,-,N/A,,Overcast,240,2013-02-03 04:54:00